TimeEST,TemperatureF,Dew PointF,Humidity,Sea Level PressureIn,VisibilityMPH,Wind Direction,Wind SpeedMPH,Gust SpeedMPH,PrecipitationIn,Events,Conditions,WindDirDegrees,DateUTC
12:15 AM,59.5,55.4,86,30.06,10.0,South,4.6,-,N/A,,Clear,180,2013-01-30 05:15:00
12:35 AM,60.8,55.4,82,30.05,10.0,South,5.8,-,N/A,,Clear,180,2013-01-30 05:35:00
12:55 AM,61.0,55.4,82,30.05,10.0,South,5.8,-,N/A,,Clear,190,2013-01-30 05:55:00
1:15 AM,60.8,55.6,83,30.03,10.0,South,6.9,-,N/A,,Clear,180,2013-01-30 06:15:00
1:35 AM,60.8,55.6,83,30.03,10.0,South,6.9,-,N/A,,Clear,190,2013-01-30 06:35:00
1:55 AM,60.8,55.8,83,30.03,10.0,SSW,9.2,-,N/A,,Clear,200,2013-01-30 06:55:00
2:15 AM,61.3,56.3,83,30.02,10.0,SSW,6.9,16.1,N/A,,Mostly Cloudy,200,2013-01-30 07:15:00
2:35 AM,60.8,55.9,84,30.01,10.0,South,6.9,-,N/A,,Mostly Cloudy,190,2013-01-30 07:35:00
2:55 AM,60.4,56.3,86,30.01,10.0,SSW,5.8,-,N/A,,Scattered Clouds,200,2013-01-30 07:55:00
3:15 AM,60.3,56.3,87,29.99,10.0,South,6.9,-,N/A,,Clear,190,2013-01-30 08:15:00
3:35 AM,59.9,56.5,88,29.99,10.0,South,6.9,-,N/A,,Clear,180,2013-01-30 08:35:00
3:55 AM,59.9,56.7,89,29.98,10.0,South,8.1,-,N/A,,Clear,180,2013-01-30 08:55:00
4:15 AM,60.1,57.2,90,29.97,10.0,South,8.1,-,N/A,,Clear,190,2013-01-30 09:15:00
4:35 AM,59.9,57.2,91,29.96,10.0,South,9.2,-,N/A,,Clear,190,2013-01-30 09:35:00
4:55 AM,60.3,57.9,92,29.96,10.0,South,8.1,-,N/A,,Clear,190,2013-01-30 09:55:00
5:15 AM,60.4,58.3,93,29.96,10.0,South,8.1,-,N/A,,Clear,190,2013-01-30 10:15:00
5:35 AM,60.8,58.8,93,29.96,10.0,South,6.9,-,N/A,,Clear,190,2013-01-30 10:35:00
5:55 AM,61.2,59.4,94,29.95,10.0,South,12.7,17.3,N/A,,Clear,180,2013-01-30 10:55:00
6:15 AM,61.9,60.1,94,29.95,10.0,South,11.5,18.4,N/A,,Clear,180,2013-01-30 11:15:00
6:55 AM,62.6,60.8,94,29.94,10.0,South,12.7,20.7,N/A,,Mostly Cloudy,190,2013-01-30 11:55:00
7:15 AM,62.8,60.8,93,29.93,10.0,South,11.5,19.6,N/A,,Scattered Clouds,190,2013-01-30 12:15:00
7:35 AM,62.8,61.0,94,29.93,10.0,South,15.0,23.0,N/A,,Clear,180,2013-01-30 12:35:00
7:55 AM,62.8,61.0,94,29.93,10.0,South,12.7,16.1,N/A,,Scattered Clouds,180,2013-01-30 12:55:00
8:15 AM,63.9,61.5,92,29.93,10.0,South,13.8,23.0,N/A,,Scattered Clouds,190,2013-01-30 13:15:00
8:35 AM,64.4,61.3,90,29.93,10.0,South,13.8,18.4,N/A,,Mostly Cloudy,190,2013-01-30 13:35:00
8:55 AM,64.9,61.7,89,29.93,10.0,South,16.1,21.9,N/A,,Overcast,190,2013-01-30 13:55:00
9:15 AM,66.0,61.9,86,29.92,10.0,South,13.8,23.0,N/A,,Overcast,190,2013-01-30 14:15:00
9:35 AM,66.2,61.7,85,29.91,10.0,South,12.7,21.9,N/A,,Overcast,190,2013-01-30 14:35:00
9:55 AM,66.6,61.7,84,29.90,10.0,SSW,13.8,19.6,N/A,,Overcast,200,2013-01-30 14:55:00
10:15 AM,68.0,61.9,81,29.90,10.0,South,16.1,24.2,N/A,,Overcast,190,2013-01-30 15:15:00
10:35 AM,68.5,62.1,80,29.89,10.0,South,13.8,24.2,N/A,,Overcast,190,2013-01-30 15:35:00
10:55 AM,69.6,62.1,77,29.88,10.0,South,18.4,24.2,N/A,,Overcast,190,2013-01-30 15:55:00
11:15 AM,69.8,61.7,75,29.87,4.0,South,16.1,32.2,N/A,,Mostly Cloudy,190,2013-01-30 16:15:00
11:35 AM,69.8,61.3,74,29.85,10.0,South,18.4,29.9,N/A,,Mostly Cloudy,190,2013-01-30 16:35:00
11:55 AM,70.0,61.7,75,29.84,7.0,South,16.1,23.0,N/A,,Mostly Cloudy,190,2013-01-30 16:55:00
12:15 PM,71.1,61.7,72,29.82,10.0,South,17.3,24.2,N/A,,Scattered Clouds,190,2013-01-30 17:15:00
12:35 PM,70.9,61.3,72,29.82,10.0,South,12.7,-,N/A,,Mostly Cloudy,190,2013-01-30 17:35:00
12:55 PM,70.7,61.2,72,29.79,10.0,South,13.8,-,N/A,,Overcast,170,2013-01-30 17:55:00
1:15 PM,72.7,61.7,68,29.76,10.0,South,17.3,23.0,N/A,,Overcast,180,2013-01-30 18:15:00
1:35 PM,73.4,61.2,65,29.74,10.0,South,17.3,25.3,N/A,,Mostly Cloudy,180,2013-01-30 18:35:00
1:55 PM,74.1,61.3,64,29.73,10.0,South,18.4,29.9,N/A,,Scattered Clouds,190,2013-01-30 18:55:00
2:15 PM,73.4,61.2,65,29.73,10.0,SSW,17.3,28.8,N/A,,Mostly Cloudy,200,2013-01-30 19:15:00
2:35 PM,72.5,61.0,67,29.73,10.0,South,16.1,27.6,N/A,,Overcast,190,2013-01-30 19:35:00
2:55 PM,72.7,61.0,67,29.73,10.0,South,15.0,23.0,N/A,,Overcast,190,2013-01-30 19:55:00
3:15 PM,73.2,61.2,66,29.72,10.0,South,16.1,25.3,N/A,,Overcast,190,2013-01-30 20:15:00
3:35 PM,73.6,61.3,65,29.70,10.0,South,16.1,26.5,N/A,,Mostly Cloudy,190,2013-01-30 20:35:00
3:55 PM,73.9,61.2,64,29.69,10.0,South,19.6,28.8,N/A,,Scattered Clouds,190,2013-01-30 20:55:00
4:15 PM,73.8,61.0,64,29.68,10.0,South,13.8,23.0,N/A,,Mostly Cloudy,190,2013-01-30 21:15:00
4:35 PM,73.4,61.0,65,29.67,10.0,South,19.6,27.6,N/A,,Mostly Cloudy,180,2013-01-30 21:35:00
4:55 PM,73.0,61.0,66,29.67,10.0,South,13.8,20.7,N/A,,Overcast,190,2013-01-30 21:55:00
5:15 PM,72.7,61.2,67,29.67,10.0,South,17.3,27.6,N/A,,Overcast,180,2013-01-30 22:15:00
5:35 PM,72.5,61.2,67,29.66,10.0,South,19.6,27.6,N/A,,Overcast,180,2013-01-30 22:35:00
5:55 PM,72.0,61.2,69,29.65,10.0,South,18.4,33.4,N/A,,Mostly Cloudy,190,2013-01-30 22:55:00
6:15 PM,71.1,61.0,70,29.65,10.0,South,17.3,24.2,N/A,,Mostly Cloudy,170,2013-01-30 23:15:00
6:35 PM,70.7,60.8,71,29.63,10.0,South,16.1,24.2,N/A,,Mostly Cloudy,170,2013-01-30 23:35:00
6:55 PM,70.9,60.4,69,29.61,10.0,South,15.0,28.8,N/A,,Overcast,170,2013-01-30 23:55:00
7:15 PM,70.9,60.1,69,29.62,10.0,South,16.1,26.5,N/A,,Overcast,170,2013-01-31 00:15:00
7:35 PM,70.7,60.1,69,29.60,10.0,South,18.4,32.2,N/A,,Overcast,170,2013-01-31 00:35:00
7:55 PM,69.8,60.1,71,29.58,10.0,SSE,15.0,25.3,N/A,,Overcast,160,2013-01-31 00:55:00
8:15 PM,70.2,60.4,71,29.58,10.0,South,21.9,27.6,N/A,,Overcast,170,2013-01-31 01:15:00
8:35 PM,70.2,60.8,72,29.55,10.0,South,17.3,28.8,N/A,,Overcast,170,2013-01-31 01:35:00
8:55 PM,70.3,61.0,72,29.54,10.0,South,20.7,33.4,N/A,,Overcast,170,2013-01-31 01:55:00
9:15 PM,69.3,60.8,74,29.52,10.0,South,23.0,33.4,N/A,,Overcast,170,2013-01-31 02:15:00
9:35 PM,69.8,61.0,73,29.51,10.0,South,21.9,31.1,N/A,,Overcast,170,2013-01-31 02:35:00
9:55 PM,70.2,61.0,73,29.49,10.0,South,21.9,38.0,N/A,,Overcast,170,2013-01-31 02:55:00
10:15 PM,70.3,61.0,72,29.47,10.0,South,20.7,32.2,N/A,,Overcast,170,2013-01-31 03:15:00
10:35 PM,70.7,61.3,72,29.46,10.0,South,23.0,36.8,N/A,,Overcast,170,2013-01-31 03:35:00
10:55 PM,70.5,61.2,72,29.45,10.0,South,21.9,28.8,N/A,,Overcast,170,2013-01-31 03:55:00
11:15 PM,70.9,61.7,73,29.44,10.0,South,19.6,38.0,N/A,,Overcast,170,2013-01-31 04:15:00
11:35 PM,71.2,61.7,72,29.42,10.0,South,23.0,34.5,N/A,,Overcast,180,2013-01-31 04:35:00
11:55 PM,71.2,61.7,72,29.39,10.0,South,23.0,35.7,N/A,,Overcast,180,2013-01-31 04:55:00